Torna al catalogo

SCOUT G-1 DEB

AttivoPO
NORAD 43330·DEBRIS·🇺🇸 United States

Lanciato Apr 26, 1988 da Vandenberg Space Force Base

Loading…

Prossimi Passaggi (prossime 24 ore)

TLE

In scadenzaSource: Space-Track

Epoca: Sep 8, 2026, 01:44 UTC

1 43330U 88033L   26251.07261218  .00000232  00000-0  41161-3 0  9991
2 43330  90.3247  21.0479 0190638  98.8551 263.4227 13.32908608670634

Traccia SCOUT G-1 DEB in tempo reale con AllMySat

Download on the App Store